Theta_e
345 345 345 344 344 344 343 341 339 338 335 334 332 329 328 326 325 326 329 336 342 345 347 352 356 357 355 353 352 352 352 352 352 352 351 349 349 349 350 350 349 349 348
345 344 344 344 343 344 343 342 339 337 335 333 332 330 329 327 327 327 328 332 341 343 347 351 355 358 358 357 355 353 352 351 351 351 351 350 349 349 350 350 349 349 348
345 344 343 343 343 343 343 340 339 337 333 332 331 330 329 328 327 327 330 332 336 342 346 351 353 355 358 359 358 355 352 351 351 350 350 350 349 349 349 350 350 350 349
348 344 344 343 345 344 341 340 339 335 333 332 332 331 330 330 330 329 331 333 336 338 342 350 352 353 355 357 359 358 355 352 350 349 349 349 349 349 349 350 350 350 349
350 347 345 345 344 343 341 340 339 337 338 334 332 332 332 329 330 331 332 334 336 339 340 343 348 350 351 354 358 359 358 353 350 350 349 349 349 349 349 349 349 349 349
349 347 347 346 345 342 340 339 338 338 336 337 335 333 332 331 331 330 332 333 336 340 342 344 345 345 348 351 353 357 358 356 353 351 349 348 348 349 349 349 349 349 349
344 343 344 345 344 341 341 341 339 336 336 334 330 331 331 331 330 331 333 334 335 337 342 343 345 345 346 349 349 352 356 358 356 353 349 346 347 349 349 349 349 348 348
342 341 340 340 341 342 342 341 339 336 335 337 331 330 326 331 328 330 332 333 334 336 340 344 346 345 346 346 347 348 352 355 357 355 349 346 346 348 349 349 348 347 347
334 337 338 338 338 339 339 340 340 339 335 339 335 331 322 322 327 329 330 332 334 334 336 339 343 345 346 346 345 346 346 348 354 356 351 347 347 348 348 348 347 346 346
326 329 332 334 336 338 339 338 340 340 338 332 337 334 335 333 326 324 329 330 332 332 335 337 340 343 344 345 346 345 341 343 349 351 350 348 347 347 347 346 344 344 344
322 325 327 328 329 333 336 338 338 338 339 336 334 334 332 332 332 325 322 326 331 335 336 337 340 341 343 345 345 342 337 337 338 341 340 341 342 345 344 344 344 345 345
318 322 325 326 327 329 332 334 336 337 336 336 335 334 331 329 328 327 324 325 325 330 334 339 340 340 342 343 342 338 334 334 331 330 331 334 338 338 340 341 342 344 345
316 319 321 322 323 326 329 331 333 334 334 332 333 333 333 333 334 333 329 325 325 327 326 332 335 339 340 341 341 337 336 329 327 325 326 329 331 332 334 336 338 339 340
316 319 320 322 323 325 326 328 329 331 332 332 332 333 333 333 335 333 329 320 317 318 322 322 327 329 336 338 337 333 336 328 326 324 324 325 326 327 329 331 331 331 334
312 314 316 317 320 321 322 322 324 326 328 330 331 332 331 334 333 329 328 324 320 313 314 318 319 328 332 333 334 335 336 330 328 325 324 324 324 324 324 325 326 328 330
309 310 311 312 315 317 318 320 321 324 325 327 329 330 331 332 330 330 328 325 323 319 314 319 321 326 329 331 333 334 335 331 327 325 326 325 321 321 322 323 324 326 328
306 307 307 308 309 311 314 317 319 321 322 323 325 327 328 331 328 327 327 326 324 321 316 318 322 326 327 328 333 336 337 337 337 325 325 323 318 318 320 321 322 323 326
304 304 305 306 307 308 310 313 316 318 319 320 322 323 322 326 327 328 327 325 325 321 318 316 321 323 324 330 333 332 333 335 338 328 324 319 319 317 318 316 319 321 318
302 303 303 303 303 304 305 308 313 315 317 320 321 321 321 322 322 325 326 324 322 322 321 319 318 324 326 331 329 329 330 333 334 327 322 320 318 317 316 314 313 314 312
301 302 303 302 302 303 304 306 308 312 315 319 322 322 322 321 322 322 322 323 322 321 321 320 320 323 327 326 328 326 325 328 330 332 324 321 318 317 314 314 315 314 310
302 303 301 300 301 302 305 307 309 310 315 318 320 322 323 321 321 321 323 323 322 320 321 321 319 322 319 316 319 321 322 324 326 328 326 323 322 322 319 315 319 316 310
299 300 299 299 300 301 300 301 303 304 310 317 317 320 321 319 319 315 315 316 321 322 320 319 317 318 314 316 317 319 320 322 321 325 327 324 325 322 322 323 315 310 308
298 298 298 299 299 300 299 299 301 305 308 314 316 316 317 321 318 322 315 312 313 313 318 323 317 316 311 313 318 321 321 322 321 325 328 324 327 324 326 320 308 307 306
297 298 298 299 299 300 299 298 299 303 307 314 315 315 315 318 320 318 319 319 321 319 318 321 321 316 315 315 321 325 323 322 324 326 328 323 327 324 320 317 307 306 305
297 298 299 299 298 299 297 297 298 302 304 310 315 316 318 319 308 302 316 316 315 310 306 307 306 301 301 305 315 323 321 320 316 319 323 325 324 319 317 313 310 305 303
298 299 299 299 300 299 297 296 298 302 304 308 314 316 306 309 300 302 313 314 311 310 311 311 310 307 309 308 307 322 320 316 317 318 325 324 321 320 312 312 309 308 305
Wind_Speed
6 6 5 4 5 4 5 5 5 5 5 5 5 5 7 7 7 5 4 12 11 12 14 15 15 16 15 15 14 13 13 13 13 13 14 14 15 14 14 14 13 14 14
4 5 4 4 4 4 4 5 6 6 7 6 7 7 8 8 8 9 6 6 11 11 13 14 17 17 16 16 14 14 15 14 14 15 15 14 15 16 15 15 15 16 16
5 4 2 4 4 3 4 4 4 4 5 5 8 7 6 7 8 8 6 6 6 13 14 13 16 18 17 16 16 16 16 15 15 15 15 15 16 16 16 16 16 16 16
7 5 5 5 4 4 4 5 6 5 5 5 7 7 7 6 8 6 7 7 7 7 9 15 16 18 19 18 17 15 16 14 15 15 14 15 16 16 16 16 17 18 19
9 8 6 6 6 5 6 6 7 5 8 6 8 8 7 8 9 8 10 10 10 9 8 11 15 17 18 18 16 17 18 15 13 14 15 16 16 15 14 15 17 18 18
6 5 5 6 6 5 6 5 9 6 8 9 8 9 8 7 6 7 10 9 10 11 9 9 7 9 17 17 17 18 19 17 15 15 15 15 13 14 16 16 18 18 20
5 4 4 4 4 6 8 8 7 9 8 6 4 9 9 10 9 10 9 9 10 12 9 9 7 7 7 16 18 19 18 18 16 15 15 12 13 15 15 16 17 18 18
2 3 4 4 5 5 7 8 7 7 7 6 5 0 7 6 7 9 8 9 12 10 10 10 10 10 8 7 11 14 15 16 16 16 12 12 13 13 14 15 16 17 17
3 4 5 5 5 5 6 7 7 10 10 7 10 6 2 7 3 3 8 9 11 10 10 10 11 11 9 8 9 10 14 15 14 14 12 13 10 11 11 12 14 13 14
5 5 5 5 5 5 7 8 7 9 9 12 7 8 12 8 7 8 3 4 6 9 11 9 9 10 9 8 11 12 12 13 13 15 13 9 8 9 9 11 13 12 14
6 6 6 6 6 5 7 8 9 9 9 11 10 9 8 9 11 11 11 8 3 5 8 8 7 8 9 9 7 8 13 12 13 10 6 8 7 7 9 10 12 14 18
7 7 6 6 7 6 7 8 9 10 10 10 9 10 11 8 6 9 10 11 12 8 4 4 6 8 8 8 9 10 13 13 9 9 8 6 7 7 7 10 13 16 18
4 7 6 8 7 8 8 8 8 9 11 10 11 10 10 13 11 11 9 6 5 3 2 2 4 8 8 6 8 12 13 10 11 8 8 7 7 7 8 10 10 12 12
4 6 8 8 10 11 10 10 7 8 10 10 13 13 11 11 10 11 8 4 2 3 3 4 5 11 9 9 10 13 7 11 10 10 8 7 7 6 5 6 8 10 8
6 7 7 9 9 10 11 11 8 10 9 10 10 11 13 11 9 9 10 7 6 6 8 6 5 5 8 7 9 5 7 10 11 8 8 7 7 4 6 5 7 6 6
9 9 11 10 10 10 10 10 10 11 11 9 8 10 11 11 12 11 12 11 10 10 10 8 9 10 6 8 8 9 9 11 9 9 9 7 5 5 6 6 5 4 3
8 9 11 12 13 12 11 11 11 12 13 10 9 11 13 13 10 11 12 11 11 11 11 7 10 10 8 9 9 10 7 7 6 11 8 7 6 5 6 4 3 3 7
7 9 11 11 12 13 13 14 13 11 13 12 11 11 12 10 14 14 12 15 12 13 11 15 7 6 12 18 14 8 6 7 7 7 7 6 6 7 4 2 5 6 7
11 11 10 11 13 14 15 16 15 13 13 14 13 12 12 13 14 13 13 12 11 10 11 8 9 6 6 4 7 4 4 5 2 6 5 6 4 5 5 6 7 9 7
12 12 11 12 15 15 16 16 16 15 13 15 14 13 14 14 16 15 14 13 11 11 12 12 10 8 9 5 5 7 5 2 3 4 5 4 5 6 7 7 7 8 8
12 11 12 13 13 14 12 13 13 14 13 15 14 14 15 16 20 16 11 12 13 11 11 12 12 9 8 6 9 5 4 4 2 3 4 3 3 3 3 4 5 8 8
13 13 12 14 14 11 17 21 20 16 17 14 13 12 11 13 20 20 22 20 16 16 17 14 6 13 7 7 5 7 6 4 4 2 4 4 3 3 3 4 7 8 8
14 14 14 13 14 13 17 20 20 13 15 15 11 10 10 7 7 8 13 16 15 13 12 15 8 4 6 8 8 7 5 4 4 4 3 3 3 3 5 5 10 11 9
15 15 14 14 14 13 17 15 17 14 15 14 9 9 11 8 5 6 5 7 10 8 7 5 7 9 7 8 9 6 6 6 5 3 3 3 3 2 4 4 6 9 8
15 15 15 15 15 14 17 15 13 11 11 13 9 10 12 4 6 9 6 5 9 7 8 9 11 11 15 14 11 10 6 6 3 3 3 3 4 4 3 2 4 6 10
16 14 15 16 16 13 14 16 13 6 9 8 8 9 12 8 14 13 5 8 9 9 11 10 10 12 12 10 10 6 7 6 3 3 5 4 4 4 3 2 3 3 5
Wind_Direction
211 194 195 192 199 198 207 199 210 237 242 251 258 253 275 275 269 266 263 272 269 268 273 270 252 247 236 241 230 219 224 222 225 227 228 229 231 232 230 231 231 233 236
229 227 216 219 236 220 220 221 221 231 238 235 245 233 243 243 259 261 256 264 256 254 255 256 252 238 238 239 232 231 222 223 222 224 228 227 231 232 233 234 233 234 235
209 216 195 235 228 225 234 238 257 247 260 251 247 250 242 251 251 258 253 251 257 257 254 244 243 245 237 236 234 223 227 225 225 225 226 227 230 231 232 233 237 239 240
207 202 203 223 216 214 219 228 233 239 248 242 258 251 253 242 247 228 238 245 247 258 254 241 236 236 239 235 231 232 230 227 226 228 228 231 233 230 230 231 232 234 235
204 208 217 223 207 216 223 229 241 223 262 253 253 258 245 237 240 244 243 236 241 243 241 241 237 237 239 240 238 228 230 223 223 225 226 229 235 236 238 237 237 235 238
214 207 227 227 219 217 232 217 234 213 237 253 258 259 249 244 235 236 247 248 239 238 238 237 238 242 233 232 233 232 234 223 218 225 224 226 226 233 234 236 240 237 237
219 219 238 250 212 225 239 239 235 236 244 244 264 260 257 241 226 229 236 242 240 247 233 231 227 234 232 218 224 232 232 232 220 223 224 222 226 237 240 240 244 247 246
220 227 231 240 239 246 251 248 232 246 242 221 231 195 288 276 238 233 230 228 237 238 237 235 232 229 230 225 237 227 229 235 230 230 219 221 231 236 247 245 249 253 253
221 228 238 235 242 232 254 256 242 240 262 251 208 210 259 242 305 179 224 227 232 238 237 239 229 227 223 223 234 233 224 227 231 229 221 225 230 240 250 251 257 260 263
253 235 238 242 239 236 244 253 253 250 253 268 251 220 240 247 261 291 233 243 236 243 245 241 241 234 224 222 230 221 215 216 213 220 226 234 243 255 252 259 262 267 271
252 256 238 237 237 232 243 248 252 248 249 261 259 252 227 238 238 240 263 258 234 231 242 245 237 233 224 219 216 217 209 203 217 227 233 243 246 243 258 270 295 295 280
313 286 257 243 243 238 235 242 246 247 250 251 253 254 252 243 218 224 239 245 255 256 282 278 253 234 227 218 215 204 210 214 212 229 225 228 242 256 278 291 290 289 289
281 278 282 281 273 259 247 239 239 246 250 251 249 247 244 249 242 244 237 240 243 30 351 313 335 304 272 213 211 197 208 212 232 221 223 216 238 255 268 270 284 291 296
278 283 283 279 277 275 272 266 253 244 247 251 253 248 245 241 241 232 229 169 157 184 197 165 328 310 279 252 220 199 210 212 218 219 214 216 252 270 289 311 300 292 316
280 281 282 278 280 280 276 272 263 253 245 248 251 256 258 241 226 207 202 189 178 196 202 199 198 231 259 258 237 210 221 223 213 206 198 218 235 267 277 299 295 304 296
276 276 278 276 275 275 275 274 268 258 249 247 248 252 258 254 223 215 209 204 208 217 251 200 210 196 160 252 253 236 227 214 189 198 202 215 219 222 228 224 250 245 266
263 275 282 281 279 274 271 270 265 267 260 254 249 251 256 246 229 228 222 218 220 222 229 229 222 216 160 207 231 219 209 205 195 204 204 206 209 211 232 236 228 221 154
267 269 272 280 286 285 279 272 268 270 271 262 253 251 256 264 247 231 235 235 225 218 210 228 211 236 227 187 201 209 201 208 199 192 203 179 193 206 212 172 153 153 137
278 280 283 287 290 285 282 276 271 267 269 265 255 251 246 240 253 251 233 226 224 216 215 219 230 228 231 201 173 160 193 200 158 129 137 150 183 209 173 136 124 130 131
288 282 279 288 288 283 276 270 269 269 268 266 261 253 250 243 241 241 243 230 223 216 210 214 223 201 194 188 187 163 162 156 147 136 121 129 160 166 134 140 140 133 132
278 272 277 283 281 280 275 283 278 272 264 265 261 259 250 246 244 231 231 231 221 212 210 210 206 203 183 179 179 178 135 135 124 144 126 156 165 144 140 143 149 136 133
278 277 272 274 275 275 281 283 284 279 281 268 264 259 255 260 244 230 225 229 226 224 215 215 186 185 180 166 160 161 130 136 157 181 137 150 161 170 146 169 148 149 147
279 275 268 269 273 274 276 276 277 276 273 264 248 251 260 255 259 229 229 238 224 217 197 182 155 156 159 165 153 141 127 120 140 152 134 133 150 153 152 127 145 156 154
280 276 272 265 270 278 275 280 282 287 284 263 251 257 253 249 259 294 271 233 219 220 192 162 171 162 140 150 154 137 131 112 102 135 143 132 141 95 73 77 129 145 145
285 280 275 267 260 262 275 272 272 283 278 278 261 248 245 237 326 262 289 168 143 123 64 105 112 110 119 125 130 120 130 137 140 166 174 131 143 108 76 89 80 98 112
280 278 278 272 262 263 271 274 266 264 268 272 250 249 237 76 34 4 333 147 131 148 148 124 103 91 104 113 110 115 146 140 135 149 171 141 130 137 118 93 115 110 89